EW3867 Weather Reports


Display with metric or nautical units.
time (UTC)temp
F
wind
direction
speed
MPH
gust
MPH
rain 1hr
in
rain 24hr
in
rain mn
in
humidity
%
barometer
mb
20260831191122 58 345 9.0 18.0 0.13 0.32 0.16 89 1012.1
20260831190051 59 0 0.0 4.0 0.16 0.29 0.13 89 1013.6
20260831185028 59 0 0.0 0.0 0.09 0.26 0.10 87 1013.9
20260831184002 59 0 0.0 1.0 0.04 0.25 0.09 87 1013.9
20260831182944 60 0 0.0 3.0 0.05 0.24 0.08 85 1013.8
20260831181954 60 0 0.0 2.0 0.00 0.23 0.06 85 1013.6
20260831180952 60 0 0.0 0.0 0.00 0.22 0.06 85 1013.5
20260831175932 60 0 0.0 0.0 0.06 0.22 0.06 82 1013.4
20260831174943 62 0 3.0 9.0 0.00 0.21 0.05 75 1013.2
20260831173938 62 0 4.0 11.0 0.00 0.20 0.04 73 1013.2
20260831172941 63 0 4.0 10.0 0.00 0.20 0.04 72 1013.0
20260831172000 63 0 4.0 11.0 0.00 0.20 0.04 73 1012.8
20260831165931 63 0 4.0 10.0 0.00 0.20 0.04 74 1012.7
20260831164900 63 0 6.0 13.0 0.00 0.20 0.04 72 1012.5
20260831163852 63 0 6.0 11.0 0.00 0.20 0.04 70 1012.3
20260831162911 64 0 7.0 13.0 0.00 0.20 0.04 70 1012.3
20260831161845 64 0 3.0 13.0 0.00 0.20 0.04 70 1012.2
20260831160851 63 0 4.0 13.0 0.00 0.20 0.04 69 1012.2
20260831154806 63 0 3.0 11.0 0.00 0.20 0.04 71 1012.1
20260831153748 62 255 1.0 9.0 0.00 0.20 0.04 71 1012.2
20260831152716 62 253 0.0 0.0 0.00 0.20 0.04 72 1012.2
20260831151706 62 252 0.0 8.0 0.00 0.20 0.04 72 1012.2
20260831150640 61 246 0.0 10.0 0.00 0.20 0.04 74 1012.1
20260831145625 61 238 0.0 0.0 0.00 0.20 0.04 74 1012.2
20260831144624 60 238 0.0 8.0 0.00 0.20 0.04 76 1012.1
20260831143600 60 209 0.0 0.0 0.00 0.20 0.04 76 1011.8
20260831141432 59 132 0.0 0.0 0.00 0.20 0.04 76 1010.7
20260831140434 59 132 0.0 0.0 0.00 0.20 0.04 77 1010.7
20260831135458 59 132 0.0 0.0 0.00 0.20 0.04 77 1010.6
20260831134449 59 132 0.0 0.0 0.00 0.20 0.04 78 1010.3
20260831133430 58 125 0.0 0.0 0.00 0.20 0.04 75 1010.0
20260831131332 59 98 0.0 0.0 0.00 0.20 0.04 74 1009.4
20260831130352 59 100 0.0 6.0 0.00 0.20 0.04 73 1009.2
20260831125353 58 50 0.0 0.0 0.00 0.20 0.04 76 1009.0
20260831123235 59 23 8.0 14.0 0.00 0.20 0.04 76 1008.7
20260831122242 58 49 9.0 15.0 0.00 0.20 0.04 76 1008.7
20260831121210 58 46 10.0 15.0 0.00 0.20 0.04 78 1008.6
20260831120141 58 49 10.0 14.0 0.00 0.20 0.04 78 1008.8
20260831115137 58 45 11.0 13.0 0.00 0.20 0.04 80 1008.8
20260831114111 57 22 8.0 11.0 0.00 0.20 0.04 81 1008.9
20260831113114 57 16 11.0 14.0 0.00 0.20 0.04 80 1008.9
20260831112050 58 38 11.0 16.0 0.00 0.20 0.04 80 1009.1
20260831105954 57 45 13.0 18.0 0.00 0.20 0.04 82 1009.6
20260831105013 56 44 7.0 18.0 0.00 0.20 0.04 87 1009.3
20260831104022 57 349 0.0 0.0 0.00 0.20 0.04 88 1010.9
20260831102948 57 349 0.0 0.0 0.00 0.20 0.04 87 1011.0
20260831100823 57 56 0.0 0.0 0.00 0.20 0.04 89 1011.3
20260831095803 57 107 0.0 0.0 0.00 0.20 0.04 88 1011.0
20260831094732 56 107 0.0 0.0 0.00 0.20 0.04 86 1010.9
20260831093715 56 107 0.0 0.0 0.00 0.20 0.04 87 1010.7
20260831091603 56 107 0.0 0.0 0.00 0.20 0.04 87 1010.7
20260831090601 57 107 0.0 0.0 0.00 0.20 0.04 86 1010.6
20260831085604 57 107 0.0 0.0 0.00 0.20 0.04 84 1010.4
20260831084624 57 107 0.0 0.0 0.00 0.20 0.04 83 1010.4
20260831082435 57 169 0.0 3.0 0.00 0.20 0.04 83 1010.8
20260831081447 58 166 3.0 0.0 0.00 0.20 0.04 80 1010.8
20260831080508 58 344 13.0 17.0 0.06 0.20 0.04 78 1010.5
20260831075500 60 348 10.0 18.0 2.25 0.18 0.02 72 1010.5
20260831074443 60 14 15.0 19.0 0.00 0.16 0.00 72 1010.1
20260831073452 61 347 15.0 19.0 0.00 0.16 0.00 71 1010.2
20260831070227 59 27 8.0 10.0 0.00 0.16 0.00 77 1009.5
20260831065219 59 27 10.0 13.0 0.00 0.16 0.00 74 1009.4
20260831064234 59 22 11.0 15.0 0.00 0.16 0.00 75 1009.4
20260831063256 59 19 13.0 15.0 0.00 0.16 0.00 75 1009.3
20260831062305 59 24 13.0 18.0 0.00 0.16 0.00 75 1009.1
20260831061316 59 38 13.0 18.0 0.00 0.16 0.00 75 1008.8
20260831060319 59 27 11.0 16.0 0.00 0.16 0.00 76 1008.9
20260831055337 59 30 14.0 19.0 0.00 0.16 0.16 75 1008.8
20260831054339 59 32 14.0 19.0 0.00 0.16 0.16 75 1008.9
20260831053333 59 30 11.0 15.0 0.00 0.16 0.16 77 1009.1
20260831052342 58 38 3.0 14.0 0.00 0.16 0.16 78 1009.3
20260831051353 58 132 0.0 0.0 0.00 0.16 0.16 80 1009.2
20260831045221 58 132 0.0 2.0 0.00 0.16 0.16 80 1009.4
20260831044233 58 136 0.0 0.0 0.00 0.16 0.16 80 1009.2
20260831043236 58 136 1.0 0.0 0.00 0.16 0.16 79 1009.4
20260831042225 59 44 7.0 12.0 0.00 0.16 0.16 79 1008.9
20260831041242 59 36 7.0 15.0 0.00 0.16 0.16 78 1008.9
20260831040225 60 24 11.0 15.0 0.00 0.16 0.16 76 1008.8
20260831034153 60 36 10.0 13.0 0.00 0.16 0.16 75 1008.5
20260831033132 60 44 10.0 13.0 0.00 0.16 0.16 77 1008.6
20260831030943 59 33 13.0 17.0 0.00 0.16 0.16 80 1008.4
20260831025958 59 16 13.0 17.0 0.00 0.16 0.16 80 1008.4
20260831025001 59 28 14.0 17.0 0.00 0.16 0.16 81 1008.2
20260831023940 59 25 14.0 19.0 0.00 0.16 0.16 83 1007.9
20260831022912 60 13 18.0 22.0 0.00 0.16 0.16 83 1008.1
20260831020814 60 5 15.0 18.0 0.00 0.16 0.16 82 1008.3
20260831015806 60 0 14.0 19.0 0.04 0.16 0.16 81 1008.1
20260831014758 60 346 11.0 22.0 0.13 0.16 0.16 83 1008.1
20260831013750 61 0 13.0 22.0 0.35 0.13 0.13 80 1008.0
20260831012750 65 271 3.0 7.0 0.06 0.09 0.09 73 1007.4
20260831011751 69 134 13.0 22.0 0.57 0.08 0.08 62 1005.8
20260831010800 76 150 0.0 16.0 0.00 0.00 0.00 38 1005.8
20260831005729 76 0 0.0 0.0 0.00 0.00 0.00 36 1005.5
20260831004705 76 0 0.0 0.0 0.00 0.00 0.00 35 1005.5
20260831003634 77 0 0.0 0.0 0.00 0.00 0.00 35 1005.6
20260831001526 77 0 0.0 8.0 0.00 0.00 0.00 34 1005.7
20260831000541 77 0 4.0 12.0 0.00 0.00 0.00 34 1005.7
20260830235528 76 0 1.0 11.0 0.00 0.00 0.00 36 1005.9
20260830234541 76 0 0.0 4.0 0.00 0.00 0.00 36 1006.0
20260830233512 77 0 0.0 7.0 0.00 0.00 0.00 35 1005.9
20260830232445 77 0 0.0 4.0 0.00 0.00 0.00 34 1005.8
20260830230340 78 0 4.0 15.0 0.00 0.00 0.00 32 1005.8
20260830225355 79 0 8.0 15.0 0.00 0.00 0.00 31 1006.0
20260830224343 78 0 11.0 19.0 0.00 0.00 0.00 31 1006.1
20260830222129 82 250 11.0 19.0 0.00 0.00 0.00 32 1005.7
20260830221149 81 251 11.0 19.0 0.00 0.00 0.00 30 1005.9
20260830220118 83 269 9.0 19.0 0.00 0.00 0.00 27 1005.8
20260830215056 84 256 14.0 23.0 0.00 0.00 0.00 26 1005.8
20260830214045 84 242 9.0 23.0 0.00 0.00 0.00 27 1005.9
20260830213033 83 224 7.0 16.0 0.00 0.00 0.00 27 1006.0
20260830212030 84 228 4.0 15.0 0.00 0.00 0.00 25 1006.0
20260830205905 84 225 6.0 21.0 0.00 0.00 0.00 26 1006.2
20260830204930 84 223 8.0 21.0 0.00 0.00 0.00 30 1006.6
20260830203948 83 270 7.0 17.0 0.00 0.00 0.00 29 1006.9
20260830201802 82 246 4.0 16.0 0.00 0.00 0.00 30 1007.3
20260830200754 82 245 6.0 16.0 0.00 0.00 0.00 31 1007.5
20260830194624 79 173 0.0 1.0 0.00 0.00 0.00 37 1007.8
20260830193604 80 173 0.0 2.0 0.00 0.00 0.00 36 1007.9
20260830192535 79 173 0.0 0.0 0.00 0.00 0.00 38 1008.0